GW6889 Weather Reports


Display with metric or nautical units.
time (UTC)temp
F
wind
direction
speed
MPH
gust
MPH
rain 1hr
in
rain 24hr
in
rain mn
in
humidity
%
barometer
mb
20260504024007 59 232 0.0 4.0 0.00 0.08 0.08 59 1007.2
20260504023505 59 161 0.0 4.0 0.00 0.08 0.08 60 1007.1
20260504023020 59 195 0.0 3.0 0.00 0.08 0.08 59 1007.2
20260504022506 59 175 0.0 3.0 0.00 0.08 0.08 59 1007.1
20260504022009 59 189 0.0 3.0 0.00 0.08 0.08 59 1007.0
20260504021522 59 199 0.0 2.0 0.00 0.08 0.08 58 1006.9
20260504021003 60 205 0.0 2.0 0.00 0.08 0.08 58 1006.8
20260504020505 60 205 0.0 5.0 0.00 0.08 0.08 57 1006.8
20260504020011 60 167 1.0 5.0 0.00 0.08 0.08 56 1006.7
20260504015508 60 172 1.0 3.0 0.00 0.08 0.08 56 1006.7
20260504015011 60 166 0.0 3.0 0.00 0.08 0.08 56 1006.6
20260504014537 61 164 0.0 3.0 0.00 0.08 0.08 56 1006.6
20260504014005 61 163 1.0 3.0 0.00 0.08 0.08 1006.5
20260504013507 61 226 0.0 3.0 0.00 0.08 0.08 54 1006.5
20260504013030 61 197 1.0 5.0 0.00 0.08 0.08 54 1006.5
20260504012513 61 222 1.0 5.0 0.00 0.08 0.08 54 1006.4
20260504012009 62 176 0.0 5.0 0.00 0.08 0.08 54 1006.4
20260504011522 62 200 1.0 4.0 0.00 0.08 0.08 54 1006.4
20260504011010 62 229 1.0 4.0 0.00 0.08 0.08 53 1006.4
20260504010503 62 184 0.0 6.0 0.00 0.08 0.08 53 1006.4
20260504010007 62 263 1.0 6.0 0.00 0.08 0.08 52 1006.3
20260504005505 62 192 1.0 5.0 0.00 0.08 0.08 52 1006.2
20260504005011 63 191 0.0 3.0 0.00 0.08 0.08 52 1006.2
20260504004512 63 98 1.0 7.0 0.00 0.08 0.08 52 1006.2
20260504004004 64 226 1.0 7.0 0.00 0.08 0.08 50 1006.4
20260504003506 64 155 2.0 7.0 0.00 0.08 0.08 50 1006.4
20260504003017 64 135 1.0 8.0 0.00 0.08 0.08 49 1006.4
20260504002510 64 221 1.0 8.0 0.00 0.08 0.08 49 1006.4
20260504002006 64 190 1.0 7.0 0.00 0.08 0.08 49 1006.4
20260504001521 65 234 2.0 7.0 0.00 0.08 0.08 48 1006.4
20260504001007 65 193 0.0 10.0 0.00 0.08 0.08 51 1006.5
20260504000510 65 129 1.0 10.0 0.00 0.08 0.08 47 1006.4
20260504000028 65 165 3.0 8.0 0.00 0.08 0.08 47 1006.4
20260503235507 65 240 2.0 5.0 0.00 0.08 0.08 47 1006.4
20260503235004 65 231 0.0 11.0 0.00 0.08 0.08 49 1006.5
20260503234526 66 148 1.0 11.0 0.00 0.08 0.08 47 1006.5
20260503234004 66 232 3.0 9.0 0.00 0.08 0.08 46 1006.5
20260503233504 65 165 1.0 9.0 0.00 0.08 0.08 50 1006.5
20260503233021 66 115 1.0 9.0 0.00 0.08 0.08 47 1006.5
20260503232504 66 115 1.0 6.0 0.00 0.08 0.08 46 1006.5
20260503232008 66 200 1.0 7.0 0.00 0.08 0.08 46 1006.4
20260503231520 66 240 3.0 11.0 0.00 0.08 0.08 45 1006.5
20260503231007 66 167 3.0 11.0 0.00 0.08 0.08 44 1006.5
20260503230511 66 114 2.0 7.0 0.00 0.08 0.08 45 1006.6
20260503230022 66 223 2.0 7.0 0.00 0.08 0.08 44 1006.7
20260503225509 66 312 0.0 11.0 0.00 0.08 0.08 46 1006.7
20260503225010 67 204 2.0 11.0 0.00 0.08 0.08 44 1006.8
20260503224506 67 143 2.0 6.0 0.00 0.08 0.08 45 1006.7
20260503224004 67 168 2.0 6.0 0.00 0.08 0.08 46 1006.8
20260503223504 67 257 0.0 7.0 0.00 0.08 0.08 45 1006.9
20260503223014 66 219 2.0 13.0 0.00 0.08 0.08 45 1006.9
20260503222504 66 216 2.0 13.0 0.00 0.08 0.08 46 1006.9
20260503222006 65 171 1.0 9.0 0.00 0.08 0.08 45 1007.0
20260503221556 65 192 1.0 9.0 0.00 0.08 0.08 44 1007.1
20260503221011 66 238 2.0 9.0 0.00 0.08 0.08 44 1007.2
20260503220511 67 252 1.0 6.0 0.00 0.08 0.08 44 1007.1
20260503220024 68 163 2.0 6.0 0.00 0.08 0.08 42 1007.1
20260503215508 67 186 2.0 6.0 0.00 0.08 0.08 42 1007.3
20260503215010 68 238 2.0 8.0 0.00 0.08 0.08 43 1007.2
20260503214524 68 262 2.0 8.0 0.00 0.08 0.08 46 1007.3
20260503214009 67 243 1.0 6.0 0.00 0.08 0.08 44 1007.4
20260503213508 66 251 1.0 6.0 0.00 0.08 0.08 48 1007.4
20260503213012 66 166 2.0 7.0 0.00 0.08 0.08 44 1007.5
20260503212505 67 185 2.0 7.0 0.00 0.08 0.08 44 1007.5
20260503212005 65 141 1.0 8.0 0.00 0.08 0.08 47 1007.7
20260503211526 64 160 2.0 9.0 0.00 0.08 0.08 44 1007.8
20260503211006 65 243 2.0 9.0 0.00 0.08 0.08 44 1007.7
20260503210507 66 135 1.0 8.0 0.00 0.08 0.08 45 1007.9
20260503210021 66 157 3.0 8.0 0.00 0.08 0.08 45 1008.0
20260503205506 64 137 3.0 14.0 0.00 0.08 0.08 46 1008.0
20260503205011 64 149 2.0 14.0 0.00 0.08 0.08 44 1008.2
20260503204526 63 183 4.0 12.0 0.00 0.08 0.08 44 1008.3
20260503204009 63 321 3.0 12.0 0.00 0.08 0.08 44 1008.5
20260503203511 63 164 2.0 11.0 0.00 0.08 0.08 43 1008.5
20260503203043 63 155 1.0 11.0 0.00 0.08 0.08 46 1008.6
20260503202504 62 210 3.0 11.0 0.00 0.08 0.08 44 1008.7
20260503202007 62 162 2.0 8.0 0.00 0.08 0.08 44 1008.8
20260503201514 63 173 3.0 13.0 0.00 0.08 0.08 44 1008.9
20260503201009 63 176 2.0 13.0 0.00 0.08 0.08 44 1008.9
20260503200505 63 148 4.0 12.0 0.00 0.08 0.08 45 1008.9
20260503200046 63 141 2.0 8.0 0.00 0.08 0.08 46 1008.8
20260503195509 64 133 3.0 11.0 0.00 0.08 0.08 44 1008.9
20260503195008 65 172 1.0 11.0 0.00 0.08 0.08 51 1008.9
20260503194536 64 207 3.0 10.0 0.00 0.08 0.08 46 1008.9
20260503194010 64 172 3.0 9.0 0.00 0.08 0.08 49 1009.0
20260503193508 64 189 3.0 9.0 0.00 0.08 0.08 47 1009.1
20260503193026 63 179 2.0 12.0 0.00 0.08 0.08 49 1009.1
20260503192508 63 172 2.0 12.0 0.00 0.08 0.08 47 1009.2
20260503192012 63 153 3.0 9.0 0.00 0.08 0.08 49 1009.2
20260503191513 63 35 3.0 9.0 0.00 0.08 0.08 53 1009.5
20260503191007 62 155 2.0 6.0 0.00 0.08 0.08 53 1009.4
20260503190508 62 180 2.0 6.0 0.00 0.08 0.08 57 1009.5
20260503190034 61 169 2.0 7.0 0.00 0.08 0.08 56 1009.6
20260503185511 61 286 3.0 12.0 0.00 0.08 0.08 57 1009.7
20260503185005 60 47 3.0 12.0 0.00 0.08 0.08 58 1010.0
20260503184524 60 180 2.0 7.0 0.00 0.08 0.08 61 1010.0
20260503184007 59 181 3.0 13.0 0.00 0.08 0.08 61 1010.1
20260503183510 58 181 4.0 13.0 0.00 0.08 0.08 63 1010.1
20260503183024 58 102 3.0 9.0 0.00 0.08 0.08 63 1010.2
20260503182507 57 155 3.0 9.0 0.00 0.08 0.08 66 1010.3
20260503182006 57 131 2.0 6.0 0.00 0.08 0.08 71 1010.4
20260503181524 55 160 3.0 6.0 0.00 0.08 0.08 71 1010.5
20260503181005 55 156 2.0 6.0 0.01 0.08 0.08 75 1010.7
20260503180506 54 284 3.0 6.0 0.01 0.08 0.08 72 1011.0
20260503180033 53 147 1.0 5.0 0.02 0.08 0.08 78 1011.1
20260503175508 52 148 1.0 5.0 0.02 0.08 0.08 80 1011.4
20260503175002 51 203 1.0 3.0 0.02 0.08 0.08 80 1011.3
20260503174503 50 105 1.0 3.0 0.02 0.08 0.08 82 1011.4
20260503174006 50 160 1.0 3.0 0.03 0.08 0.08 82 1011.9
20260503173503 49 153 1.0 3.0 0.04 0.08 0.08 85 1011.9
20260503173006 49 191 1.0 3.0 0.04 0.08 0.08 84 1012.2
20260503172504 48 274 1.0 3.0 0.04 0.08 0.08 85 1012.4
20260503172008 48 210 1.0 5.0 0.04 0.08 0.08 85 1012.5
20260503171510 48 163 1.0 5.0 0.04 0.08 0.08 84 1012.7
20260503171004 48 209 1.0 5.0 0.03 0.07 0.07 85 1013.0
20260503170508 48 158 2.0 5.0 0.03 0.07 0.07 85 1013.2
20260503151004 55 243 2.0 15.0 0.00 0.00 0.00 57 1014.3
20260503150504 54 226 3.0 12.0 0.00 0.00 0.00 56 1014.2
20260503131004 48 250 1.0 4.0 0.00 0.00 0.00 63 1015.1
20260503130503 48 169 0.0 5.0 0.00 0.00 0.00 65 1015.2
20260503110510 43 169 1.0 3.0 0.00 0.00 0.00 67 1014.7
20260503090510 42 259 0.0 2.0 0.00 0.00 0.00 66 1015.2
20260503081524 43 236 0.0 2.0 0.00 0.00 0.00 63 1015.4
20260503081005 43 244 1.0 3.0 0.00 0.00 0.00 63 1015.5
20260503080505 43 256 0.0 3.0 0.00 0.00 0.00 63 1015.4
20260503072506 43 177 0.0 2.0 0.00 0.00 0.00 63 1015.5
20260503072010 43 173 0.0 2.0 0.00 0.00 0.00 62 1015.5
20260503071509 43 173 0.0 2.0 0.00 0.00 0.00 63 1015.6
20260503071005 43 222 0.0 2.0 0.00 0.00 0.00 62 1015.6
20260503070504 43 236 0.0 2.0 0.00 0.00 0.00 61 1015.7
20260503055004 43 179 0.0 4.0 0.00 0.00 0.00 59 1016.3
20260503054526 43 201 0.0 2.0 0.00 0.00 0.00 59 1016.3
20260503054009 43 238 0.0 2.0 0.00 0.00 0.00 59 1016.3
20260503053508 43 221 0.0 2.0 0.00 0.00 0.00 59 1016.3
20260503053036 43 200 0.0 2.0 0.00 0.00 0.00 60 1016.4
20260503052508 43 200 0.0 2.0 0.00 0.00 0.00 60 1016.5
20260503052010 43 200 0.0 2.0 0.00 0.00 0.00 60 1016.5
20260503051524 43 200 0.0 2.0 0.00 0.00 0.00 60 1016.5
20260503051008 43 200 0.0 2.0 0.00 0.00 0.00 60 1016.6
20260503050511 44 200 0.0 2.0 0.00 0.00 0.00 59 1016.6
20260503050027 44 202 0.0 2.0 0.00 0.00 0.00 59 1016.6
20260503045511 44 239 0.0 1.0 0.00 0.00 0.00 59 1016.7
20260503045003 44 239 0.0 2.0 0.00 0.00 0.00 58 1016.6
20260503044515 44 169 0.0 2.0 0.00 0.00 0.00 59 1016.7
20260503044008 44 169 0.0 2.0 0.00 0.00 0.00 59 1016.7
20260503043508 44 169 0.0 2.0 0.00 0.00 0.00 59 1016.7
20260503043025 44 176 0.0 1.0 0.00 0.00 0.00 59 1016.7
20260503042510 44 176 0.0 2.0 0.00 0.00 0.00 59 1016.7
20260503042007 44 173 0.0 2.0 0.00 0.00 0.00 58 1016.7
20260503041522 44 173 0.0 0.0 0.00 0.00 0.00 59 1016.8
20260503041008 44 173 0.0 1.0 0.00 0.00 0.00 59 1016.7
20260503040507 44 173 0.0 1.0 0.00 0.00 0.00 58 1016.8
20260503040035 44 169 0.0 2.0 0.00 0.00 0.00 59 1016.9
20260503035511 44 167 0.0 2.0 0.00 0.00 0.00 59 1016.8
20260503035011 45 166 0.0 1.0 0.00 0.00 0.00 58 1016.8
20260503034528 44 160 0.0 2.0 0.00 0.00 0.00 58 1016.9
20260503034005 45 160 0.0 2.0 0.00 0.00 0.00 58 1016.8
20260503033504 45 160 0.0 2.0 0.00 0.00 0.00 58 1016.9
20260503033022 45 117 0.0 2.0 0.00 0.00 0.00 57 1016.9
20260503032507 45 115 0.0 2.0 0.00 0.00 0.00 57 1017.0
20260503032009 45 75 0.0 0.0 0.00 0.00 0.00 57 1016.9
20260503031525 45 75 0.0 0.0 0.00 0.00 0.00 57 1017.0
20260503031005 45 75 0.0 0.0 0.00 0.00 0.00 56 1017.0
20260503030509 45 75 0.0 0.0 0.00 0.00 0.00 57 1017.0
20260503030027 45 75 0.0 0.0 0.00 0.00 0.00 55 1017.0
20260503025509 46 75 0.0 0.0 0.00 0.00 0.00 55 1017.1
20260503025011 46 75 0.0 0.0 0.00 0.00 0.00 54 1017.0
20260503024528 46 75 0.0 0.0 0.00 0.00 0.00 56 1017.1